contact:dominique.lefevre@mio.osupytheas.fr, maurice.libes@osupytheas.fr, didier.mallarino@osupytheas.fr
Project:EMSO http://www.emso-fr.org/EMSO-France
Depth: 2436.0 m
Title:EMSO Ligure Ouest : Data MII capteur MICROCAT
DateTime_Computer,Latitude,Longitude,Temperature,Conductivity,Pressure,DateTime_Instrument
DateTime_Computer,Latitude,Longitude,degC,S m-1,dbar,DateTime_Instrument
2022-09-15T00:00:39Z,42.805,6.029,13.3065,4.60087,2470.6,2022-9-15T02:02:31Z
2022-09-15T00:03:42Z,42.805,6.029,13.3069,4.60119,2470.567,2022-9-15T02:05:34Z
2022-09-15T00:06:45Z,42.805,6.029,13.3080,4.60174,2470.577,2022-9-15T02:08:37Z
2022-09-15T00:09:48Z,42.805,6.029,13.3080,4.60139,2470.577,2022-9-15T02:11:40Z
2022-09-15T00:12:51Z,42.805,6.029,13.3078,4.60121,2470.591,2022-9-15T02:14:43Z
2022-09-15T00:15:54Z,42.805,6.029,13.3068,4.60092,2470.591,2022-9-15T02:17:46Z
2022-09-15T00:18:57Z,42.805,6.029,13.3078,4.60117,2470.591,2022-9-15T02:20:50Z
2022-09-15T00:22:00Z,42.805,6.029,13.3090,4.60082,2470.614,2022-9-15T02:23:53Z
2022-09-15T00:25:03Z,42.805,6.029,13.3089,4.60079,2470.553,2022-9-15T02:26:56Z
2022-09-15T00:28:07Z,42.805,6.029,13.3093,4.60121,2470.567,2022-9-15T02:29:59Z
2022-09-15T00:31:10Z,42.805,6.029,13.3093,4.60129,2470.591,2022-9-15T02:33:02Z
2022-09-15T00:34:13Z,42.805,6.029,13.3088,4.60110,2470.553,2022-9-15T02:36:05Z
2022-09-15T00:37:16Z,42.805,6.029,13.3077,4.60108,2470.553,2022-9-15T02:39:08Z
2022-09-15T00:40:19Z,42.805,6.029,13.3095,4.60122,2470.553,2022-9-15T02:42:11Z
2022-09-15T00:43:22Z,42.805,6.029,13.3091,4.60080,2470.553,2022-9-15T02:45:14Z
2022-09-15T00:46:25Z,42.805,6.029,13.3076,4.60105,2470.544,2022-9-15T02:48:18Z
2022-09-15T00:49:28Z,42.805,6.029,13.3076,4.60106,2470.567,2022-9-15T02:51:21Z
2022-09-15T00:52:32Z,42.805,6.029,13.3094,4.60119,2470.544,2022-9-15T02:54:24Z
2022-09-15T00:55:35Z,42.805,6.029,13.3083,4.60120,2470.567,2022-9-15T02:57:27Z
2022-09-15T00:58:38Z,42.805,6.029,13.3078,4.60116,2470.567,2022-9-15T03:00:30Z
2022-09-15T01:01:41Z,42.805,6.029,13.3077,4.60079,2470.52,2022-9-15T03:03:33Z
2022-09-15T01:04:44Z,42.805,6.029,13.3072,4.60076,2470.544,2022-9-15T03:06:36Z
2022-09-15T01:07:47Z,42.805,6.029,13.3067,4.60068,2470.52,2022-9-15T03:09:40Z
2022-09-15T01:10:50Z,42.805,6.029,13.3078,4.60073,2470.52,2022-9-15T03:12:43Z
2022-09-15T01:13:53Z,42.805,6.029,13.3088,4.60069,2470.52,2022-9-15T03:15:46Z
2022-09-15T01:16:57Z,42.805,6.029,13.3067,4.60069,2470.52,2022-9-15T03:18:49Z
2022-09-15T01:20:00Z,42.805,6.029,13.3062,4.60078,2470.497,2022-9-15T03:21:52Z
2022-09-15T01:23:03Z,42.805,6.029,13.3057,4.60084,2470.507,2022-9-15T03:24:55Z
2022-09-15T01:26:06Z,42.805,6.029,13.3046,4.60129,2470.52,2022-9-15T03:27:58Z
2022-09-15T01:29:09Z,42.805,6.029,13.3035,4.60088,2470.52,2022-9-15T03:31:01Z
2022-09-15T01:32:12Z,42.805,6.029,13.3066,4.60089,2470.52,2022-9-15T03:34:04Z
2022-09-15T01:35:15Z,42.805,6.029,13.3071,4.60110,2470.507,2022-9-15T03:37:08Z
2022-09-15T01:38:18Z,42.805,6.029,13.3077,4.60132,2470.544,2022-9-15T03:40:11Z
2022-09-15T01:41:22Z,42.805,6.029,13.3072,4.60109,2470.52,2022-9-15T03:43:14Z
2022-09-15T01:44:25Z,42.805,6.029,13.3029,4.60118,2470.507,2022-9-15T03:46:17Z
2022-09-15T01:47:28Z,42.805,6.029,13.3041,4.60139,2470.52,2022-9-15T03:49:20Z
2022-09-15T01:50:31Z,42.805,6.029,13.3059,4.60121,2470.52,2022-9-15T03:52:23Z
2022-09-15T01:53:34Z,42.805,6.029,13.3061,4.60125,2470.52,2022-9-15T03:55:26Z
2022-09-15T01:56:37Z,42.805,6.029,13.3049,4.60102,2470.497,2022-9-15T03:58:29Z
2022-09-15T01:59:40Z,42.805,6.029,13.3049,4.60109,2470.474,2022-9-15T04:01:33Z
2022-09-15T02:02:43Z,42.805,6.029,13.3072,4.60107,2470.474,2022-9-15T04:04:36Z
2022-09-15T02:05:46Z,42.805,6.029,13.3046,4.60105,2470.474,2022-9-15T04:07:39Z
2022-09-15T02:08:50Z,42.805,6.029,13.3054,4.60109,2470.497,2022-9-15T04:10:42Z
2022-09-15T02:11:53Z,42.805,6.029,13.3072,4.60112,2470.46,2022-9-15T04:13:45Z
2022-09-15T02:14:56Z,42.805,6.029,13.3093,4.60106,2470.474,2022-9-15T04:16:48Z
2022-09-15T02:17:59Z,42.805,6.029,13.3055,4.60093,2470.46,2022-9-15T04:19:51Z
2022-09-15T02:21:02Z,42.805,6.029,13.3036,4.60127,2470.437,2022-9-15T04:22:54Z
2022-09-15T02:24:05Z,42.805,6.029,13.3046,4.60127,2470.474,2022-9-15T04:25:58Z
2022-09-15T02:27:08Z,42.805,6.029,13.3056,4.60097,2470.497,2022-9-15T04:29:01Z
2022-09-15T02:30:11Z,42.805,6.029,13.3061,4.60125,2470.483,2022-9-15T04:32:04Z
2022-09-15T02:33:15Z,42.805,6.029,13.3063,4.60140,2470.474,2022-9-15T04:35:07Z
2022-09-15T02:36:18Z,42.805,6.029,13.3053,4.60130,2470.45,2022-9-15T04:38:10Z
2022-09-15T02:39:21Z,42.805,6.029,13.3085,4.60092,2470.474,2022-9-15T04:41:13Z
2022-09-15T02:42:24Z,42.805,6.029,13.3085,4.60100,2470.437,2022-9-15T04:44:16Z
2022-09-15T02:45:27Z,42.805,6.029,13.3072,4.60120,2470.46,2022-9-15T04:47:19Z
2022-09-15T02:48:30Z,42.805,6.029,13.3075,4.60101,2470.474,2022-9-15T04:50:23Z
2022-09-15T02:51:33Z,42.805,6.029,13.3040,4.60136,2470.427,2022-9-15T04:53:26Z
2022-09-15T02:54:36Z,42.805,6.029,13.3063,4.60137,2470.427,2022-9-15T04:56:29Z
2022-09-15T02:57:40Z,42.805,6.029,13.3072,4.60072,2470.464,2022-9-15T04:59:32Z
2022-09-15T03:00:43Z,42.805,6.029,13.3074,4.60114,2470.474,2022-9-15T05:02:35Z
2022-09-15T03:03:46Z,42.805,6.029,13.3036,4.60089,2470.45,2022-9-15T05:05:38Z
2022-09-15T03:06:49Z,42.805,6.029,13.3041,4.60115,2470.46,2022-9-15T05:08:41Z
2022-09-15T03:09:52Z,42.805,6.029,13.3043,4.60126,2470.427,2022-9-15T05:11:44Z
2022-09-15T03:12:55Z,42.805,6.029,13.3035,4.60115,2470.427,2022-9-15T05:14:47Z
2022-09-15T03:15:58Z,42.805,6.029,13.3065,4.60142,2470.45,2022-9-15T05:17:51Z
2022-09-15T03:19:01Z,42.805,6.029,13.3040,4.60087,2470.45,2022-9-15T05:20:54Z
2022-09-15T03:22:05Z,42.805,6.029,13.3036,4.60094,2470.46,2022-9-15T05:23:57Z
2022-09-15T03:25:08Z,42.805,6.029,13.3039,4.60119,2470.437,2022-9-15T05:27:00Z
2022-09-15T03:28:11Z,42.805,6.029,13.3039,4.60097,2470.427,2022-9-15T05:30:03Z
2022-09-15T03:31:14Z,42.805,6.029,13.3035,4.60094,2470.437,2022-9-15T05:33:06Z
2022-09-15T03:34:17Z,42.805,6.029,13.3054,4.60126,2470.45,2022-9-15T05:36:09Z
2022-09-15T03:37:20Z,42.805,6.029,13.3082,4.60101,2470.45,2022-9-15T05:39:12Z
2022-09-15T03:40:23Z,42.805,6.029,13.3070,4.60094,2470.46,2022-9-15T05:42:16Z
2022-09-15T03:43:26Z,42.805,6.029,13.3034,4.60112,2470.45,2022-9-15T05:45:19Z
2022-09-15T03:46:30Z,42.805,6.029,13.3074,4.60089,2470.437,2022-9-15T05:48:22Z
2022-09-15T03:49:33Z,42.805,6.029,13.3091,4.60111,2470.437,2022-9-15T05:51:25Z
2022-09-15T03:52:36Z,42.805,6.029,13.3054,4.60099,2470.404,2022-9-15T05:54:28Z
2022-09-15T03:55:39Z,42.805,6.029,13.3033,4.60142,2470.474,2022-9-15T05:57:31Z
2022-09-15T03:58:42Z,42.805,6.029,13.3039,4.60112,2470.45,2022-9-15T06:00:34Z
2022-09-15T04:01:45Z,42.805,6.029,13.3089,4.60109,2470.474,2022-9-15T06:03:37Z
2022-09-15T04:04:48Z,42.805,6.029,13.3036,4.60117,2470.45,2022-9-15T06:06:41Z
2022-09-15T04:07:51Z,42.805,6.029,13.3036,4.60121,2470.413,2022-9-15T06:09:44Z
2022-09-15T04:10:54Z,42.805,6.029,13.3037,4.60094,2470.45,2022-9-15T06:12:47Z
2022-09-15T04:13:58Z,42.805,6.029,13.3048,4.60133,2470.437,2022-9-15T06:15:50Z
2022-09-15T04:17:01Z,42.805,6.029,13.3051,4.60119,2470.474,2022-9-15T06:18:53Z
2022-09-15T04:20:04Z,42.805,6.029,13.3027,4.60122,2470.437,2022-9-15T06:21:56Z
2022-09-15T04:23:07Z,42.805,6.029,13.3044,4.60104,2470.437,2022-9-15T06:24:59Z
2022-09-15T04:26:10Z,42.805,6.029,13.3033,4.60144,2470.413,2022-9-15T06:28:02Z
2022-09-15T04:29:13Z,42.805,6.029,13.3037,4.60149,2470.39,2022-9-15T06:31:06Z
2022-09-15T04:32:16Z,42.805,6.029,13.3045,4.60112,2470.427,2022-9-15T06:34:09Z
2022-09-15T04:35:19Z,42.805,6.029,13.3039,4.60137,2470.427,2022-9-15T06:37:12Z
2022-09-15T04:38:23Z,42.805,6.029,13.3041,4.60113,2470.427,2022-9-15T06:40:15Z
2022-09-15T04:41:26Z,42.805,6.029,13.3041,4.60133,2470.404,2022-9-15T06:43:18Z
2022-09-15T04:44:29Z,42.805,6.029,13.3051,4.60116,2470.437,2022-9-15T06:46:21Z
2022-09-15T04:47:32Z,42.805,6.029,13.3030,4.60122,2470.474,2022-9-15T06:49:24Z
2022-09-15T04:50:35Z,42.805,6.029,13.3038,4.60122,2470.366,2022-9-15T06:52:27Z
2022-09-15T04:53:38Z,42.805,6.029,13.3033,4.60140,2470.427,2022-9-15T06:55:31Z
2022-09-15T04:56:41Z,42.805,6.029,13.3039,4.60119,2470.39,2022-9-15T06:58:34Z
2022-09-15T04:59:44Z,42.805,6.029,13.3042,4.60094,2470.45,2022-9-15T07:01:37Z
2022-09-15T05:02:48Z,42.805,6.029,13.3048,4.60107,2470.39,2022-9-15T07:04:40Z
2022-09-15T05:05:51Z,42.805,6.029,13.3029,4.60122,2470.404,2022-9-15T07:07:43Z
2022-09-15T05:08:54Z,42.805,6.029,13.3033,4.60115,2470.427,2022-9-15T07:10:46Z
2022-09-15T05:11:57Z,42.805,6.029,13.3042,4.60105,2470.413,2022-9-15T07:13:49Z
2022-09-15T05:15:00Z,42.805,6.029,13.3050,4.60110,2470.39,2022-9-15T07:16:52Z
2022-09-15T05:18:03Z,42.805,6.029,13.3049,4.60092,2470.413,2022-9-15T07:19:56Z
2022-09-15T05:21:06Z,42.805,6.029,13.3051,4.60099,2470.427,2022-9-15T07:22:59Z
2022-09-15T05:24:09Z,42.805,6.029,13.3055,4.60101,2470.427,2022-9-15T07:26:02Z
2022-09-15T05:27:13Z,42.805,6.029,13.3063,4.60119,2470.427,2022-9-15T07:29:05Z
2022-09-15T05:30:16Z,42.805,6.029,13.3047,4.60122,2470.413,2022-9-15T07:32:08Z
2022-09-15T05:33:19Z,42.805,6.029,13.3055,4.60100,2470.427,2022-9-15T07:35:11Z
2022-09-15T05:36:22Z,42.805,6.029,13.3047,4.60122,2470.39,2022-9-15T07:38:14Z
2022-09-15T05:39:25Z,42.805,6.029,13.3047,4.60094,2470.427,2022-9-15T07:41:17Z
2022-09-15T05:42:28Z,42.805,6.029,13.3035,4.60099,2470.423,2022-9-15T07:44:20Z
2022-09-15T05:45:31Z,42.805,6.029,13.3045,4.60087,2470.45,2022-9-15T07:47:24Z
2022-09-15T05:48:34Z,42.805,6.029,13.3030,4.60096,2470.427,2022-9-15T07:50:27Z
2022-09-15T05:51:37Z,42.805,6.029,13.3036,4.60122,2470.413,2022-9-15T07:53:30Z
2022-09-15T05:54:41Z,42.805,6.029,13.3041,4.60117,2470.474,2022-9-15T07:56:33Z
2022-09-15T05:57:44Z,42.805,6.029,13.3039,4.60093,2470.45,2022-9-15T07:59:36Z
2022-09-15T06:00:47Z,42.805,6.029,13.3028,4.60150,2470.437,2022-9-15T08:02:39Z
2022-09-15T06:03:50Z,42.805,6.029,13.3031,4.60175,2470.45,2022-9-15T08:05:42Z
2022-09-15T06:06:53Z,42.805,6.029,13.3043,4.60142,2470.413,2022-9-15T08:08:45Z
2022-09-15T06:09:56Z,42.805,6.029,13.3054,4.60135,2470.45,2022-9-15T08:11:49Z
2022-09-15T06:12:59Z,42.805,6.029,13.3028,4.60116,2470.45,2022-9-15T08:14:52Z
2022-09-15T06:16:02Z,42.805,6.029,13.3043,4.60127,2470.437,2022-9-15T08:17:55Z
2022-09-15T06:19:06Z,42.805,6.029,13.3029,4.60112,2470.46,2022-9-15T08:20:58Z
2022-09-15T06:22:09Z,42.805,6.029,13.3034,4.60128,2470.427,2022-9-15T08:24:01Z
2022-09-15T06:25:12Z,42.805,6.029,13.3032,4.60137,2470.437,2022-9-15T08:27:04Z
2022-09-15T06:28:15Z,42.805,6.029,13.3024,4.60120,2470.45,2022-9-15T08:30:07Z
2022-09-15T06:31:18Z,42.805,6.029,13.3021,4.60111,2470.474,2022-9-15T08:33:10Z
2022-09-15T06:34:21Z,42.805,6.029,13.3030,4.60129,2470.45,2022-9-15T08:36:14Z
2022-09-15T06:37:24Z,42.805,6.029,13.3026,4.60131,2470.45,2022-9-15T08:39:17Z
2022-09-15T06:40:27Z,42.805,6.029,13.3031,4.60137,2470.483,2022-9-15T08:42:20Z
2022-09-15T06:43:31Z,42.805,6.029,13.3022,4.60103,2470.46,2022-9-15T08:45:23Z
2022-09-15T06:46:34Z,42.805,6.029,13.3034,4.60130,2470.45,2022-9-15T08:48:26Z
2022-09-15T06:49:37Z,42.805,6.029,13.3029,4.60112,2470.46,2022-9-15T08:51:29Z
2022-09-15T06:52:40Z,42.805,6.029,13.3038,4.60140,2470.45,2022-9-15T08:54:32Z
2022-09-15T06:55:43Z,42.805,6.029,13.3034,4.60129,2470.483,2022-9-15T08:57:35Z
2022-09-15T06:58:46Z,42.805,6.029,13.3029,4.60116,2470.46,2022-9-15T09:00:39Z
2022-09-15T07:01:49Z,42.805,6.029,13.3031,4.60131,2470.45,2022-9-15T09:03:42Z
2022-09-15T07:04:52Z,42.805,6.029,13.3025,4.60104,2470.483,2022-9-15T09:06:45Z
2022-09-15T07:07:55Z,42.805,6.029,13.3025,4.60129,2470.483,2022-9-15T09:09:48Z
2022-09-15T07:10:59Z,42.805,6.029,13.3028,4.60115,2470.507,2022-9-15T09:12:51Z
2022-09-15T07:14:02Z,42.805,6.029,13.3024,4.60087,2470.46,2022-9-15T09:15:54Z
2022-09-15T07:17:05Z,42.805,6.029,13.3018,4.60108,2470.483,2022-9-15T09:18:57Z
2022-09-15T07:20:08Z,42.805,6.029,13.3019,4.60125,2470.474,2022-9-15T09:22:00Z
2022-09-15T07:23:11Z,42.805,6.029,13.3029,4.60135,2470.483,2022-9-15T09:25:03Z
2022-09-15T07:26:14Z,42.805,6.029,13.3036,4.60131,2470.46,2022-9-15T09:28:07Z
2022-09-15T07:29:17Z,42.805,6.029,13.3029,4.60129,2470.474,2022-9-15T09:31:10Z
2022-09-15T07:32:20Z,42.805,6.029,13.3043,4.60119,2470.474,2022-9-15T09:34:13Z
2022-09-15T07:35:24Z,42.805,6.029,13.3029,4.60137,2470.474,2022-9-15T09:37:16Z
2022-09-15T07:38:27Z,42.805,6.029,13.3052,4.60114,2470.497,2022-9-15T09:40:19Z
2022-09-15T07:41:30Z,42.805,6.029,13.3045,4.60150,2470.497,2022-9-15T09:43:22Z
2022-09-15T07:44:33Z,42.805,6.029,13.3050,4.60114,2470.497,2022-9-15T09:46:25Z
2022-09-15T07:47:36Z,42.805,6.029,13.3061,4.60105,2470.507,2022-9-15T09:49:28Z
2022-09-15T07:50:39Z,42.805,6.029,13.3048,4.60117,2470.483,2022-9-15T09:52:32Z
2022-09-15T07:53:42Z,42.805,6.029,13.3076,4.60136,2470.497,2022-9-15T09:55:35Z
2022-09-15T07:56:45Z,42.805,6.029,13.3040,4.60119,2470.52,2022-9-15T09:58:38Z
2022-09-15T07:59:49Z,42.805,6.029,13.3021,4.60130,2470.483,2022-9-15T10:01:41Z
2022-09-15T08:02:52Z,42.805,6.029,13.3032,4.60154,2470.483,2022-9-15T10:04:44Z
2022-09-15T08:05:55Z,42.805,6.029,13.3043,4.60136,2470.53,2022-9-15T10:07:47Z
2022-09-15T08:08:58Z,42.805,6.029,13.3032,4.60131,2470.474,2022-9-15T10:10:50Z
2022-09-15T08:12:01Z,42.805,6.029,13.3021,4.60094,2470.507,2022-9-15T10:13:53Z
2022-09-15T08:15:04Z,42.805,6.029,13.3034,4.60120,2470.507,2022-9-15T10:16:57Z
2022-09-15T08:18:07Z,42.805,6.029,13.3042,4.60137,2470.507,2022-9-15T10:20:00Z
2022-09-15T08:21:10Z,42.805,6.029,13.3022,4.60120,2470.507,2022-9-15T10:23:03Z
2022-09-15T08:24:14Z,42.805,6.029,13.3024,4.60113,2470.483,2022-9-15T10:26:06Z
2022-09-15T08:27:17Z,42.805,6.029,13.3035,4.60136,2470.507,2022-9-15T10:29:09Z
2022-09-15T08:30:20Z,42.805,6.029,13.3047,4.60147,2470.52,2022-9-15T10:32:12Z
2022-09-15T08:33:23Z,42.805,6.029,13.3030,4.60114,2470.544,2022-9-15T10:35:15Z
2022-09-15T08:36:26Z,42.805,6.029,13.3041,4.60117,2470.507,2022-9-15T10:38:18Z
2022-09-15T08:39:29Z,42.805,6.029,13.3041,4.60104,2470.507,2022-9-15T10:41:22Z
2022-09-15T08:42:32Z,42.805,6.029,13.3036,4.60110,2470.553,2022-9-15T10:44:25Z
2022-09-15T08:45:35Z,42.805,6.029,13.3063,4.60113,2470.544,2022-9-15T10:47:28Z
2022-09-15T08:48:39Z,42.805,6.029,13.3050,4.60114,2470.507,2022-9-15T10:50:31Z
2022-09-15T08:51:42Z,42.805,6.029,13.3036,4.60140,2470.53,2022-9-15T10:53:34Z
2022-09-15T08:54:45Z,42.805,6.029,13.3037,4.60133,2470.52,2022-9-15T10:56:37Z
2022-09-15T08:57:48Z,42.805,6.029,13.3038,4.60152,2470.567,2022-9-15T10:59:40Z
2022-09-15T09:00:51Z,42.805,6.029,13.3036,4.60134,2470.544,2022-9-15T11:02:43Z
2022-09-15T09:03:54Z,42.805,6.029,13.3055,4.60112,2470.507,2022-9-15T11:05:47Z
2022-09-15T09:06:57Z,42.805,6.029,13.3046,4.60130,2470.53,2022-9-15T11:08:50Z
2022-09-15T09:10:00Z,42.805,6.029,13.3037,4.60135,2470.53,2022-9-15T11:11:53Z
2022-09-15T09:13:04Z,42.805,6.029,13.3040,4.60123,2470.567,2022-9-15T11:14:56Z
2022-09-15T09:16:07Z,42.805,6.029,13.3040,4.60100,2470.53,2022-9-15T11:17:59Z
2022-09-15T09:19:10Z,42.805,6.029,13.3018,4.60107,2470.53,2022-9-15T11:21:02Z
2022-09-15T09:22:13Z,42.805,6.029,13.3047,4.60114,2470.544,2022-9-15T11:24:05Z
2022-09-15T09:25:16Z,42.805,6.029,13.3039,4.60123,2470.544,2022-9-15T11:27:08Z
2022-09-15T09:28:19Z,42.805,6.029,13.3046,4.60131,2470.553,2022-9-15T11:30:12Z
2022-09-15T09:31:22Z,42.805,6.029,13.3050,4.60117,2470.53,2022-9-15T11:33:15Z
2022-09-15T09:34:25Z,42.805,6.029,13.3049,4.60110,2470.53,2022-9-15T11:36:18Z
2022-09-15T09:37:29Z,42.805,6.029,13.3060,4.60143,2470.52,2022-9-15T11:39:21Z
2022-09-15T09:40:32Z,42.805,6.029,13.3043,4.60112,2470.53,2022-9-15T11:42:24Z
2022-09-15T09:43:35Z,42.805,6.029,13.3063,4.60092,2470.553,2022-9-15T11:45:27Z
2022-09-15T09:46:38Z,42.805,6.029,13.3047,4.60106,2470.544,2022-9-15T11:48:30Z
2022-09-15T09:49:41Z,42.805,6.029,13.3036,4.60122,2470.544,2022-9-15T11:51:33Z
2022-09-15T09:52:44Z,42.805,6.029,13.3036,4.60133,2470.544,2022-9-15T11:54:37Z
2022-09-15T09:55:47Z,42.805,6.029,13.3061,4.60132,2470.553,2022-9-15T11:57:40Z
2022-09-15T09:58:50Z,42.805,6.029,13.3061,4.60106,2470.567,2022-9-15T12:00:43Z
2022-09-15T10:01:54Z,42.805,6.029,13.3048,4.60103,2470.544,2022-9-15T12:03:46Z
2022-09-15T10:04:57Z,42.805,6.029,13.3043,4.60121,2470.581,2022-9-15T12:06:49Z
2022-09-15T10:08:00Z,42.805,6.029,13.3044,4.60108,2470.52,2022-9-15T12:09:52Z
2022-09-15T10:11:03Z,42.805,6.029,13.3040,4.60122,2470.53,2022-9-15T12:12:55Z
2022-09-15T10:14:06Z,42.805,6.029,13.3046,4.60108,2470.53,2022-9-15T12:15:58Z
2022-09-15T10:17:09Z,42.805,6.029,13.3056,4.60101,2470.507,2022-9-15T12:19:02Z
2022-09-15T10:20:12Z,42.805,6.029,13.3061,4.60114,2470.507,2022-9-15T12:22:05Z
2022-09-15T10:23:15Z,42.805,6.029,13.3032,4.60119,2470.497,2022-9-15T12:25:08Z
2022-09-15T10:26:19Z,42.805,6.029,13.3049,4.60132,2470.544,2022-9-15T12:28:11Z
2022-09-15T10:29:22Z,42.805,6.029,13.3053,4.60102,2470.52,2022-9-15T12:31:14Z
2022-09-15T10:32:25Z,42.805,6.029,13.3057,4.60131,2470.53,2022-9-15T12:34:17Z
2022-09-15T10:35:28Z,42.805,6.029,13.3055,4.60135,2470.483,2022-9-15T12:37:20Z
2022-09-15T10:38:31Z,42.805,6.029,13.3066,4.60121,2470.52,2022-9-15T12:40:24Z
2022-09-15T10:41:34Z,42.805,6.029,13.3056,4.60136,2470.544,2022-9-15T12:43:27Z
2022-09-15T10:44:37Z,42.805,6.029,13.3034,4.60121,2470.52,2022-9-15T12:46:30Z
2022-09-15T10:47:40Z,42.805,6.029,13.3063,4.60107,2470.53,2022-9-15T12:49:33Z
2022-09-15T10:50:44Z,42.805,6.029,13.3067,4.60132,2470.483,2022-9-15T12:52:36Z
2022-09-15T10:53:47Z,42.805,6.029,13.3069,4.60160,2470.52,2022-9-15T12:55:39Z
2022-09-15T10:56:50Z,42.805,6.029,13.3069,4.60131,2470.507,2022-9-15T12:58:42Z
2022-09-15T10:59:53Z,42.805,6.029,13.3069,4.60117,2470.544,2022-9-15T13:01:45Z
2022-09-15T11:02:56Z,42.805,6.029,13.3075,4.60134,2470.507,2022-9-15T13:04:49Z
2022-09-15T11:05:59Z,42.805,6.029,13.3054,4.60114,2470.52,2022-9-15T13:07:52Z
2022-09-15T11:09:02Z,42.805,6.029,13.3061,4.60102,2470.53,2022-9-15T13:10:55Z
2022-09-15T11:12:05Z,42.805,6.029,13.3067,4.60149,2470.507,2022-9-15T13:13:58Z
2022-09-15T11:15:09Z,42.805,6.029,13.3058,4.60134,2470.544,2022-9-15T13:17:01Z
2022-09-15T11:18:12Z,42.805,6.029,13.3051,4.60132,2470.497,2022-9-15T13:20:04Z
2022-09-15T11:21:15Z,42.805,6.029,13.3039,4.60121,2470.52,2022-9-15T13:23:07Z
2022-09-15T11:24:18Z,42.805,6.029,13.3054,4.60146,2470.483,2022-9-15T13:26:10Z
2022-09-15T11:27:21Z,42.805,6.029,13.3056,4.60138,2470.544,2022-9-15T13:29:14Z
2022-09-15T11:30:24Z,42.805,6.029,13.3036,4.60122,2470.53,2022-9-15T13:32:17Z
2022-09-15T11:33:27Z,42.805,6.029,13.3057,4.60127,2470.497,2022-9-15T13:35:20Z
2022-09-15T11:36:31Z,42.805,6.029,13.3026,4.60144,2470.483,2022-9-15T13:38:23Z
2022-09-15T11:39:34Z,42.805,6.029,13.3058,4.60152,2470.53,2022-9-15T13:41:26Z
2022-09-15T11:42:37Z,42.805,6.029,13.3074,4.60119,2470.507,2022-9-15T13:44:29Z
2022-09-15T11:45:40Z,42.805,6.029,13.3059,4.60137,2470.544,2022-9-15T13:47:32Z
2022-09-15T11:48:43Z,42.805,6.029,13.3057,4.60102,2470.52,2022-9-15T13:50:35Z
2022-09-15T11:51:46Z,42.805,6.029,13.3075,4.60144,2470.507,2022-9-15T13:53:39Z
2022-09-15T11:54:49Z,42.805,6.029,13.3046,4.60153,2470.507,2022-9-15T13:56:42Z
2022-09-15T11:57:52Z,42.805,6.029,13.3053,4.60144,2470.507,2022-9-15T13:59:45Z
2022-09-15T12:00:56Z,42.805,6.029,13.3036,4.60163,2470.507,2022-9-15T14:02:48Z
2022-09-15T12:03:59Z,42.805,6.029,13.3069,4.60104,2470.483,2022-9-15T14:05:51Z
2022-09-15T12:07:02Z,42.805,6.029,13.3036,4.60110,2470.483,2022-9-15T14:08:54Z
2022-09-15T12:10:05Z,42.805,6.029,13.3087,4.60105,2470.474,2022-9-15T14:11:57Z
2022-09-15T12:13:08Z,42.805,6.029,13.3089,4.60155,2470.497,2022-9-15T14:15:00Z
2022-09-15T12:16:11Z,42.805,6.029,13.3076,4.60126,2470.46,2022-9-15T14:18:04Z
2022-09-15T12:19:14Z,42.805,6.029,13.3048,4.60087,2470.497,2022-9-15T14:21:07Z
2022-09-15T12:22:17Z,42.805,6.029,13.3069,4.60131,2470.437,2022-9-15T14:24:10Z
2022-09-15T12:25:21Z,42.805,6.029,13.3049,4.60102,2470.474,2022-9-15T14:27:13Z
2022-09-15T12:28:24Z,42.805,6.029,13.3039,4.60174,2470.483,2022-9-15T14:30:16Z
2022-09-15T12:31:27Z,42.805,6.029,13.3041,4.60123,2470.497,2022-9-15T14:33:19Z
2022-09-15T12:34:30Z,42.805,6.029,13.3070,4.60149,2470.474,2022-9-15T14:36:22Z
2022-09-15T12:37:33Z,42.805,6.029,13.3042,4.60132,2470.437,2022-9-15T14:39:26Z
2022-09-15T12:40:36Z,42.805,6.029,13.3041,4.60154,2470.474,2022-9-15T14:42:29Z
2022-09-15T12:43:39Z,42.805,6.029,13.3067,4.60150,2470.46,2022-9-15T14:45:32Z
2022-09-15T12:46:43Z,42.805,6.029,13.3079,4.60115,2470.474,2022-9-15T14:48:35Z
2022-09-15T12:49:46Z,42.805,6.029,13.3073,4.60119,2470.474,2022-9-15T14:51:38Z
2022-09-15T12:52:49Z,42.805,6.029,13.3078,4.60137,2470.427,2022-9-15T14:54:41Z
2022-09-15T12:55:52Z,42.805,6.029,13.3070,4.60122,2470.45,2022-9-15T14:57:44Z
2022-09-15T12:58:55Z,42.805,6.029,13.3055,4.60090,2470.413,2022-9-15T15:00:47Z
2022-09-15T13:01:58Z,42.805,6.029,13.3061,4.60079,2470.46,2022-9-15T15:03:51Z
2022-09-15T13:05:01Z,42.805,6.029,13.3031,4.60105,2470.46,2022-9-15T15:06:54Z
2022-09-15T13:08:04Z,42.805,6.029,13.3048,4.60081,2470.437,2022-9-15T15:09:57Z
2022-09-15T13:11:08Z,42.805,6.029,13.3047,4.60074,2470.413,2022-9-15T15:13:00Z
2022-09-15T13:14:11Z,42.805,6.029,13.3058,4.60079,2470.437,2022-9-15T15:16:03Z
2022-09-15T13:17:14Z,42.805,6.029,13.3052,4.60097,2470.46,2022-9-15T15:19:06Z
2022-09-15T13:20:17Z,42.805,6.029,13.3058,4.60091,2470.413,2022-9-15T15:22:09Z
2022-09-15T13:23:20Z,42.805,6.029,13.3053,4.60095,2470.45,2022-9-15T15:25:12Z
2022-09-15T13:26:23Z,42.805,6.029,13.3076,4.60081,2470.427,2022-9-15T15:28:16Z
2022-09-15T13:29:26Z,42.805,6.029,13.3059,4.60097,2470.413,2022-9-15T15:31:19Z
2022-09-15T13:32:29Z,42.805,6.029,13.3029,4.60105,2470.427,2022-9-15T15:34:22Z
2022-09-15T13:35:33Z,42.805,6.029,13.3037,4.60093,2470.45,2022-9-15T15:37:25Z
2022-09-15T13:38:36Z,42.805,6.029,13.3061,4.60066,2470.413,2022-9-15T15:40:28Z
2022-09-15T13:41:39Z,42.805,6.029,13.3036,4.60081,2470.399,2022-9-15T15:43:31Z
2022-09-15T13:44:42Z,42.805,6.029,13.3058,4.60072,2470.427,2022-9-15T15:46:34Z
2022-09-15T13:47:45Z,42.805,6.029,13.3044,4.60085,2470.427,2022-9-15T15:49:37Z
2022-09-15T13:50:48Z,42.805,6.029,13.3055,4.60075,2470.437,2022-9-15T15:52:41Z
2022-09-15T13:53:51Z,42.805,6.029,13.3049,4.60096,2470.427,2022-9-15T15:55:44Z
2022-09-15T13:56:54Z,42.805,6.029,13.3049,4.60084,2470.404,2022-9-15T15:58:47Z
2022-09-15T13:59:58Z,42.805,6.029,13.3051,4.60074,2470.427,2022-9-15T16:01:50Z
2022-09-15T14:03:01Z,42.805,6.029,13.3030,4.60064,2470.404,2022-9-15T16:04:53Z
2022-09-15T14:06:04Z,42.805,6.029,13.3033,4.60076,2470.413,2022-9-15T16:07:56Z
2022-09-15T14:09:07Z,42.805,6.029,13.3053,4.60079,2470.39,2022-9-15T16:10:59Z
2022-09-15T14:12:10Z,42.805,6.029,13.3048,4.60109,2470.404,2022-9-15T16:14:02Z
2022-09-15T14:15:13Z,42.805,6.029,13.3028,4.60086,2470.413,2022-9-15T16:17:06Z
2022-09-15T14:18:16Z,42.805,6.029,13.3030,4.60102,2470.427,2022-9-15T16:20:09Z
2022-09-15T14:21:19Z,42.805,6.029,13.3046,4.60079,2470.427,2022-9-15T16:23:12Z
2022-09-15T14:24:23Z,42.805,6.029,13.3055,4.60103,2470.413,2022-9-15T16:26:15Z
2022-09-15T14:27:26Z,42.805,6.029,13.3049,4.60078,2470.357,2022-9-15T16:29:18Z
2022-09-15T14:30:29Z,42.805,6.029,13.3044,4.60087,2470.39,2022-9-15T16:32:21Z
2022-09-15T14:33:32Z,42.805,6.029,13.3039,4.60124,2470.39,2022-9-15T16:35:24Z
2022-09-15T14:36:35Z,42.805,6.029,13.3069,4.60069,2470.404,2022-9-15T16:38:27Z
2022-09-15T14:39:38Z,42.805,6.029,13.3036,4.60089,2470.39,2022-9-15T16:41:31Z
2022-09-15T14:42:41Z,42.805,6.029,13.3057,4.60069,2470.404,2022-9-15T16:44:34Z
2022-09-15T14:45:44Z,42.805,6.029,13.3056,4.60110,2470.427,2022-9-15T16:47:37Z
2022-09-15T14:48:48Z,42.805,6.029,13.3057,4.60078,2470.38,2022-9-15T16:50:40Z
2022-09-15T14:51:51Z,42.805,6.029,13.3041,4.60099,2470.39,2022-9-15T16:53:43Z
2022-09-15T14:54:54Z,42.805,6.029,13.3042,4.60089,2470.404,2022-9-15T16:56:46Z
2022-09-15T14:57:57Z,42.805,6.029,13.3076,4.60092,2470.404,2022-9-15T16:59:49Z
2022-09-15T15:01:00Z,42.805,6.029,13.3084,4.60084,2470.413,2022-9-15T17:02:52Z
2022-09-15T15:04:03Z,42.805,6.029,13.3069,4.60081,2470.38,2022-9-15T17:05:56Z
2022-09-15T15:07:06Z,42.805,6.029,13.3058,4.60108,2470.366,2022-9-15T17:08:59Z
2022-09-15T15:10:09Z,42.805,6.029,13.3056,4.60077,2470.366,2022-9-15T17:12:02Z
2022-09-15T15:13:13Z,42.805,6.029,13.3044,4.60110,2470.39,2022-9-15T17:15:05Z